• In Hungary
  • List of Countries
  • For 7 days
  • Water Temperature
  • Satellite Maps
  • Weather Map
  • News
  • Weather Widgets
  • user-avatar
    Login

    Hourly Weather Lubcz

    Today, 19 October, Friday

    Time Temperature Precipitation Wind Pressure Humidity
    00:00 +12°C° 0 mm 2 mps 756 mmHg 82%
    01:00 +12°C° 0 mm 2 mps 756 mmHg 86%
    02:00 +10°C° 0 mm 2 mps 756 mmHg 89%
    03:00 +10°C° 0 mm 2 mps 757 mmHg 91%
    04:00 +10°C° 0 mm 2 mps 757 mmHg 94%
    05:00 +10°C° 0 mm 2 mps 757 mmHg 94%
    06:00 +10°C° 0 mm 2 mps 757 mmHg 95%
    07:00 +9°C° 0 mm 2 mps 757 mmHg 96%
    08:00 +12°C° 0 mm 2 mps 758 mmHg 90%
    09:00 +13°C° 0 mm 2 mps 758 mmHg 83%
    10:00 +14°C° 0 mm 2 mps 758 mmHg 77%
    11:00 +15°C° 0 mm 2 mps 758 mmHg 73%
    12:00 +16°C° 0 mm 2 mps 758 mmHg 69%
    13:00 +16°C° 0 mm 2 mps 758 mmHg 64%
    14:00 +16°C° 0 mm 2 mps 758 mmHg 64%
    15:00 +16°C° 0 mm 2 mps 758 mmHg 64%
    16:00 +16°C° 0 mm 2 mps 758 mmHg 64%
    17:00 +15°C° 0 mm 1 mps 758 mmHg 64%
    18:00 +14°C° 0 mm 1 mps 758 mmHg 64%
    19:00 +14°C° 0 mm 1 mps 759 mmHg 65%
    20:00 +13°C° 0 mm 1 mps 759 mmHg 65%
    21:00 +13°C° 0 mm 1 mps 759 mmHg 66%
    22:00 +13°C° 0 mm 1 mps 759 mmHg 67%
    23:00 +12°C° 0 mm 1 mps 759 mmHg 68%

    Tomorrow, 20 October, Saturday

    Time Temperature Precipitation Wind Pressure Humidity
    00:00 +12°C° 0 mm 1 mps 759 mmHg 69%
    01:00 +12°C° 0 mm 1 mps 759 mmHg 70%
    02:00 +11°C° 0 mm 1 mps 759 mmHg 71%
    03:00 +11°C° 0 mm 1 mps 759 mmHg 73%
    04:00 +11°C° 0 mm 1 mps 759 mmHg 74%
    05:00 +11°C° 0 mm 1 mps 759 mmHg 76%
    06:00 +9°C° 0 mm 2 mps 760 mmHg 77%
    07:00 +9°C° 0 mm 2 mps 760 mmHg 79%
    08:00 +10°C° 0 mm 3 mps 760 mmHg 75%
    09:00 +11°C° 0 mm 3 mps 760 mmHg 70%
    10:00 +11°C° 0 mm 4 mps 761 mmHg 66%
    11:00 +12°C° 0 mm 4 mps 760 mmHg 63%
    12:00 +12°C° 0 mm 4 mps 760 mmHg 59%
    13:00 +13°C° 0 mm 4 mps 760 mmHg 56%
    14:00 +12°C° 0 mm 4 mps 760 mmHg 56%
    15:00 +12°C° 0 mm 4 mps 760 mmHg 57%
    16:00 +10°C° 0 mm 5 mps 760 mmHg 58%
    17:00 +11°C° 0 mm 4 mps 760 mmHg 61%
    18:00 +10°C° 0 mm 4 mps 760 mmHg 65%
    19:00 +9°C° 0 mm 3 mps 760 mmHg 68%
    20:00 +9°C° 0 mm 3 mps 760 mmHg 72%
    21:00 +9°C° 0 mm 3 mps 760 mmHg 76%
    22:00 +8°C° 0 mm 3 mps 760 mmHg 80%
    23:00 +8°C° 0 mm 3 mps 760 mmHg 82%

    Day after tomorrow, 21 October, Sunday

    Time Temperature Precipitation Wind Pressure Humidity
    00:00 +8°C° 0 mm 3 mps 760 mmHg 85%
    01:00 +7°C° 0 mm 3 mps 760 mmHg 88%
    02:00 +7°C° 0 mm 3 mps 760 mmHg 89%
    03:00 +7°C° 0 mm 3 mps 760 mmHg 91%
    04:00 +7°C° 0 mm 3 mps 760 mmHg 92%
    05:00 +5°C° 0 mm 3 mps 760 mmHg 93%
    06:00 +5°C° 0 mm 3 mps 760 mmHg 94%
    07:00 +5°C° 0 mm 3 mps 760 mmHg 95%
    08:00 +8°C° 0 mm 3 mps 760 mmHg 88%
    09:00 +9°C° 0 mm 3 mps 760 mmHg 80%
    10:00 +11°C° 0 mm 3 mps 761 mmHg 73%
    11:00 +13°C° 0 mm 2 mps 761 mmHg 69%
    12:00 +14°C° 0 mm 2 mps 760 mmHg 64%
    13:00 +14°C° 0 mm 2 mps 760 mmHg 59%
    14:00 +14°C° 0 mm 2 mps 760 mmHg 60%
    15:00 +14°C° 0 mm 1 mps 760 mmHg 62%
    16:00 +13°C° 0 mm 1 mps 760 mmHg 63%
    17:00 +13°C° 0 mm 1 mps 760 mmHg 65%
    18:00 +12°C° 0 mm 1 mps 760 mmHg 68%
    19:00 +10°C° 0 mm 0 mps 760 mmHg 71%
    20:00 +10°C° 0 mm 1 mps 760 mmHg 73%
    21:00 +10°C° 0 mm 1 mps 760 mmHg 75%
    22:00 +9°C° 0 mm 1 mps 760 mmHg 77%
    23:00 +9°C° 0 mm 1 mps 760 mmHg 79%

    22 October, Monday

    Time Temperature Precipitation Wind Pressure Humidity
    00:00 +9°C° 0 mm 1 mps 760 mmHg 82%
    01:00 +7°C° 0 mm 2 mps 760 mmHg 84%
    02:00 +7°C° 0 mm 2 mps 760 mmHg 86%
    03:00 +6°C° 0 mm 2 mps 759 mmHg 87%
    04:00 +6°C° 0 mm 2 mps 759 mmHg 89%
    05:00 +6°C° 0 mm 2 mps 759 mmHg 89%
    06:00 +6°C° 0 mm 2 mps 759 mmHg 90%
    07:00 +6°C° 0 mm 2 mps 759 mmHg 90%
    08:00 +7°C° 0 mm 3 mps 759 mmHg 83%
    09:00 +8°C° 0 mm 3 mps 759 mmHg 75%
    10:00 +10°C° 0 mm 4 mps 759 mmHg 68%
    11:00 +10°C° 0.2 mm 4 mps 758 mmHg 71%
    12:00 +8°C° 0.2 mm 4 mps 758 mmHg 74%
    13:00 +8°C° 0.2 mm 4 mps 758 mmHg 77%
    14:00 +8°C° 0.4 mm 4 mps 758 mmHg 79%
    15:00 +8°C° 0.4 mm 4 mps 758 mmHg 81%
    16:00 +8°C° 0.4 mm 4 mps 758 mmHg 83%
    17:00 +8°C° 0.2 mm 4 mps 758 mmHg 81%
    18:00 +7°C° 0.2 mm 4 mps 758 mmHg 80%
    19:00 +7°C° 0.2 mm 4 mps 758 mmHg 78%
    20:00 +7°C° 0 mm 3 mps 758 mmHg 79%
    21:00 +7°C° 0 mm 3 mps 758 mmHg 80%
    22:00 +5°C° 0 mm 3 mps 758 mmHg 81%
    23:00 +5°C° 0 mm 3 mps 758 mmHg 83%

    23 October, Tuesday

    Time Temperature Precipitation Wind Pressure Humidity
    00:00 +4°C° 0 mm 3 mps 758 mmHg 84%
    01:00 +4°C° 0 mm 3 mps 758 mmHg 86%
    02:00 +4°C° 0 mm 3 mps 757 mmHg 87%
    03:00 +3°C° 0 mm 3 mps 757 mmHg 88%
    04:00 +3°C° 0 mm 4 mps 757 mmHg 88%
    05:00 +3°C° 0 mm 4 mps 757 mmHg 89%
    06:00 +3°C° 0 mm 4 mps 756 mmHg 90%
    07:00 +3°C° 0 mm 4 mps 756 mmHg 90%
    08:00 +4°C° 0 mm 4 mps 756 mmHg 85%
    09:00 +5°C° 0 mm 5 mps 756 mmHg 79%
    10:00 +7°C° 0 mm 6 mps 755 mmHg 73%
    11:00 +7°C° 0.3 mm 6 mps 755 mmHg 73%
    12:00 +7°C° 0.3 mm 6 mps 754 mmHg 74%
    13:00 +8°C° 0.3 mm 7 mps 754 mmHg 74%
    14:00 +7°C° 0.2 mm 6 mps 754 mmHg 76%
    15:00 +7°C° 0.2 mm 5 mps 754 mmHg 78%
    16:00 +7°C° 0.2 mm 5 mps 753 mmHg 81%
    17:00 +7°C° 0.2 mm 4 mps 753 mmHg 82%
    18:00 +7°C° 0.2 mm 4 mps 753 mmHg 84%
    19:00 +6°C° 0.2 mm 4 mps 753 mmHg 86%
    20:00 +6°C° 0.1 mm 4 mps 753 mmHg 87%
    21:00 +6°C° 0.1 mm 4 mps 752 mmHg 87%
    22:00 +6°C° 0.1 mm 5 mps 752 mmHg 88%
    23:00 +7°C° 0.7 mm 6 mps 751 mmHg 88%

    24 October, Wednesday

    Time Temperature Precipitation Wind Pressure Humidity
    00:00 +7°C° 0.7 mm 6 mps 750 mmHg 89%
    01:00 +8°C° 0.7 mm 7 mps 749 mmHg 89%
    02:00 +8°C° 0.7 mm 7 mps 748 mmHg 89%
    03:00 +9°C° 0.7 mm 8 mps 747 mmHg 89%
    04:00 +10°C° 0.7 mm 8 mps 746 mmHg 88%
    05:00 +10°C° 0.4 mm 8 mps 745 mmHg 88%
    06:00 +11°C° 0.4 mm 8 mps 745 mmHg 87%
    07:00 +11°C° 0.4 mm 8 mps 744 mmHg 86%
    08:00 +11°C° 0.1 mm 8 mps 744 mmHg 84%
    09:00 +12°C° 0.1 mm 8 mps 744 mmHg 81%
    10:00 +12°C° 0.1 mm 9 mps 744 mmHg 79%
    11:00 +13°C° 0.1 mm 9 mps 744 mmHg 75%
    12:00 +13°C° 0.1 mm 9 mps 744 mmHg 71%
    13:00 +13°C° 0.1 mm 9 mps 744 mmHg 66%
    14:00 +13°C° 0.1 mm 9 mps 744 mmHg 65%
    15:00 +13°C° 0.1 mm 8 mps 744 mmHg 64%
    16:00 +12°C° 0.1 mm 8 mps 745 mmHg 62%
    17:00 +12°C° 0 mm 7 mps 745 mmHg 64%
    18:00 +11°C° 0 mm 7 mps 746 mmHg 65%
    19:00 +10°C° 0 mm 6 mps 746 mmHg 66%
    20:00 +9°C° 0 mm 6 mps 747 mmHg 66%
    21:00 +9°C° 0 mm 5 mps 747 mmHg 66%
    22:00 +8°C° 0 mm 5 mps 748 mmHg 65%
    23:00 +8°C° 0 mm 5 mps 748 mmHg 63%
    Show more